Location: Newark
(7.0858°N, 171.3717°E)
Time: 07:09:53
(UTC+00:00)

Courier 1B - Pass Details

Date: 05 December 2020
Orbit: 962 x 1209 km, 28.3° (Epoch: 20 January)

Event Time Altitude Azimuth Distance (km) Brightness Sun altitude
Rises 08:21:43 0° 293° (WNW) 3,629 11.1 -29.6°
Reaches altitude 10° 08:25:53 10° 318° (NW) 2,684 10.0 -30.5°
Enters shadow 08:28:12 13° 339° (NNW) 2,442 9.5 -31.1°
Maximum altitude 08:29:01 14° 348° (NNW) 2,427 - -31.2°
Drops below altitude 10° 08:32:11 10° 17° (NNE) 2,714 - -32.0°
Sets 08:36:28 0° 42° (NE) 3,700 - -33.0°
